Weather Service Report


086 
ASUS46 KSEW 021410
RWRWA 

WASHINGTON REGIONAL WEATHER ROUNDUP
NATIONAL WEATHER SERVICE SEATTLE WA
700 AM PDT THU OCT 02 2014

NOTE:"FAIR" INDICATES FEW OR NO CLOUDS BELOW 12,000 FEET WITH NO 
SIGNIFICANT WEATHER AND/OR OBSTRUCTIONS TO VISIBILITY.

WAZ505-507>509-021500-
SEATTLE, TACOMA, EVERETT, AND VICINITY
  
CITY           SKY/WX    TMP DP  RH WIND       PRES   REMARKS
EVERETT        MOCLDY    51  47  86 CALM      30.27R                  
BOEING FIELD   MOCLDY    56  47  71 CALM      30.27R                  
RENTON         CLEAR     51  50  96 SE3       30.26R                  
SEATAC AIRPORT PTCLDY    50  45  83 CALM      30.27R                  
JBLM-MCCHORD   FOG       39  39 100 S3        30.27R VSB 3/4          
PUYALLUP       NOT AVBL                                               
JBLM-FT LEWIS  CLEAR     43  42  97 SE2       30.26R                  
TACOMA NARROWS CLEAR     49  46  90 CALM      30.26R                  
$$
 
WAZ001-503-506-510-514-515-021500-
NORTH INTERIOR
  
CITY           SKY/WX    TMP DP  RH WIND       PRES   REMARKS
BELLINGHAM     CLEAR     46  43  89 CALM      30.26R                  
FRIDAY HARBOR  MOCLDY    46  45  96 CALM      30.27R                  
EASTSOUND      MOCLDY    46  46 100 CALM      30.25R                  
PORT ANGELES   PTCLDY    46  41  82 SW5       30.26R                  
NAS WHIDBEY    MOCLDY    49  46  90 E5        30.27R                  
BURLINGTON     MOCLDY    48  48 100 CALM      30.27S                  
$$
 
WAZ020-022-039-040-504-511-512-021500-
SOUTHWEST INTERIOR
  
CITY           SKY/WX    TMP DP  RH WIND       PRES   REMARKS
SHELTON        CLEAR     41  40  96 CALM      30.24R                  
OLYMPIA        PTCLDY    40  39  97 CALM      30.27R                  
CHEHALIS       PTSUNNY   45  45 100 CALM      30.26R                  
KELSO          CLOUDY    48  45  87 CALM      30.29R                  
VANCOUVER      CLEAR     45  43  93 CALM      30.24R                  
SCAPPOOSE, OR  PTCLDY    45  43  93 CALM      30.25R                  
PORTLAND, OR   PTCLDY    48  45  89 CALM      30.25R                  
$$
 
WAZ021-516-517-021500-
WASHINGTON COAST
  
CITY           SKY/WX    TMP DP  RH WIND       PRES   REMARKS
FORKS          CLOUDY    50  48  93 E6        30.24R FOG              
HOQUIAM        PTCLDY    48  47  96 NE5       30.25R FOG              
ASTORIA, OR    CLEAR     46  44  93 SE5       30.24R                  
$$
 
WAZ019-023-024-040-518-519-021500-
CASCADE MOUNTAINS AND COLUMBIA GORGE
  
CITY           SKY/WX    TMP DP  RH WIND       PRES   REMARKS
STAMPEDE PASS  NOT AVBL                                               
TROUTDALE, OR  CLEAR     46  43  89 CALM      30.24R                  
THE DALLES, OR CLEAR     51  40  65 SW7       30.19R                  
$$

WAZ026-027-041>044-520-521-021500-
EAST SLOPES
  
CITY           SKY/WX    TMP DP  RH WIND       PRES   REMARKS
OMAK           MOCLDY    44  30  57 W9        30.22R                  
WENATCHEE      CLEAR     54  34  46 CALM      30.22R                  
ELLENSBURG     CLEAR     48  38  68 NW9       30.21R                  
YAKIMA         CLEAR     43  35  73 W7        30.21R                  
$$

WAZ028-034-035-021500-
COLUMBIA BASIN
  
CITY           SKY/WX    TMP DP  RH WIND       PRES   REMARKS
EPHRATA        CLEAR     51  34  52 NW9       30.19R                  
MOSES LAKE     PTCLDY    45  32  60 NW8       30.19R                  
PASCO          CLEAR     40  39  97 N6        30.20R                  
HERMISTON, OR  CLEAR     47  38  71 S7        30.19R                  
$$

WAZ036>038-021500-
NORTHEAST WASHINGTON
  
CITY           SKY/WX    TMP DP  RH WIND       PRES   REMARKS
SPOKANE GEIGER PTCLDY    42  31  64 SW3       30.16R                  
SPOKANE FELTS  CLEAR     40  35  83 NE5       30.18R                  
FAIRCHILD AFB  PTCLDY    40  29  65 W6        30.17R                  
COEURDALENE,ID CLEAR     43  36  75 S6        30.16R                  
DEER PARK      CLEAR     32  30  92 CALM      30.17R                  
$$

WAZ029>033-021500-
SOUTHEAST WASHINGTON
  
CITY           SKY/WX    TMP DP  RH WIND       PRES   REMARKS
PULLMAN        CLEAR     39  34  82 NE3       30.19R                  
LEWISTON, ID   CLEAR     41  37  86 S3        30.19R                  
WALLA WALLA    CLEAR     50  39  66 S7        30.21R                  
PENDLETON, OR  PTCLDY    42  36  79 S6        30.20R                  
$$

Return to Home page


Western Regional Climate Center, wrcc@dri.edu